Location: Poughquag
(41.6090°N, 73.6820°W)
Time: 14:57:48
(UTC-04:00)

POLYITAN 1 - Pass Details

Date: 15 September 2024
Orbit: 534 x 555 km, 98.1° (Epoch: 12 October)

Event Time Altitude Azimuth Distance (km) Brightness Sun altitude
Rises 04:03:22 0° 26° (NNE) 2,714 ? -27.6°
Reaches altitude 10° 04:05:48 10° 40° (NE) 1,811 ? -27.2°
Maximum altitude 04:09:03 25° 96° (E) 1,121 ? -26.7°
Enters shadow 04:10:24 20° 127° (SE) 1,263 ? -26.5°
Exits shadow 04:37:09 -52° 189° (S) 10,690 ? -22.1°
